OPS 4682 DEB

Satellite information

Favourite Embed

Satellite Type and Status

DEBRISIN ORBIT

Key statistics

Satellite OPS 4682 DEB at a glance.

Uptime

22123

Days in orbit

Revolutions

≈ 13.0

Per day

Orbit

SSO

Sun Synchronous Orbit

Inclination

90.2

Latest

Satellite identification and parameters

Extended collection of information and parameters for OPS 4682 DEB.

Object identification

Identified? True

Debris? True

Object name: OPS 4682 DEB

International designator: 1965-027X

Object number (NORAD): 18268

Object ID (CCSDS): 18268

Country: UNITED STATES OF AMERICA (US)

Current information (Y/N): Y

RCS size: SMALL

Orbital parameters

Period: 110.98 minutes

Inclination: 90.2434 deg

SMA: 7649.926 km

Apoapsis: 1294.458 km

Periapsis: 1249.123 km

RAAN: 359.549 deg

Eccentricy: 0.0029631

Argument of periapsis: 318.5793 deg

Mean anomaly: 41.3081 deg

Mean motion: 12.97528552 rev/day

Mean motion (dot): -0.00000149 rev/day2

B* drag term: -0.00053573849 1/REarth

Two-line elements (TLE)

Creation date: Oct. 27, 2025, 2:46 a.m.

Reference frame: TEME

Reference center: EARTH

Epoch: Oct. 26, 2025, 10:52 a.m. UTC

TLE line 0: 0 OPS 4682 DEB

TLE line 1: 1 18268U 65027X 25299.45341691 -.00000149 00000-0 -53574-3 0 9998

TLE line 2: 2 18268 90.2434 359.5490 0029631 318.5793 41.3081 12.97528552631622

Live tracking on map

Real-time ground track for satellite OPS 4682 DEB.

In-orbit conjunctions

A list of the most updated potential collisions computed for object OPS 4682 DEB.

Target Orbit TCA Probability of collision Miss distance Type
SS 2 LEO 2025-03-06 03:42:11 0.0001474215 152.0 (m) PAYLOAD

Associated space launch

Experimental satellite equipped with a nuclear power system and a cesium ion engine.

OPS 4682 DEB was lifted into orbit during the mission ‘Atlas SLV-3 Agena D | SNAPSHOT-1’, on board a Atlas SLV-3 Agena D space rocket.

The launch took place on April 3, 1965, 9:25 p.m. from Space Launch Complex 4E.

For more information about the launch, click the button.

Launch to space Atlas SLV-3 Agena D | SNAPSHOT-1
Atlas SLV-3 Agena D | SNAPSHOT-1

Agency: N/A

Status: Launch Successful

Launch date: April 3, 1965, 9:25 p.m. UTC

Rocket: Atlas SLV-3 Agena D

Launch pad: Space Launch Complex 4E

Location: Vandenberg SFB, CA, USA

...

Latest news about this satellite

There are no fresh news available about this satellite. Check back as we update our databases every day.


Newsletter sign-up

Weekly statistics, charts and insights to help you stay on top of the space industry.